Time,TemperatureF,DewpointF,PressureIn,WindDirection,WindDirectionDegrees,WindSpeedMPH,WindSpeedGustMPH,Humidity,HourlyPrecipIn,Conditions,Clouds,dailyrainin,SolarRadiationWatts/m^2,SoftwareType,DateUTC
2013-02-03 00:03:00,43.1,26.7,30.29,West,279,4.6,4.6,52,0.00,CLR,,0.00,0.0,WeatherDisplay:10.37,2013-02-03 06:03:00,
2013-02-03 00:08:00,42.9,26.5,30.29,West,275,5.8,5.8,52,0.00,CLR,,0.00,0.0,WeatherDisplay:10.37,2013-02-03 06:08:00,
2013-02-03 00:13:00,42.8,26.4,30.29,NW,316,5.8,5.8,52,0.00,CLR,,0.00,0.0,WeatherDisplay:10.37,2013-02-03 06:13:00,
2013-02-03 00:18:00,42.6,26.2,30.29,West,275,5.0,5.0,52,0.00,CLR,,0.00,0.0,WeatherDisplay:10.37,2013-02-03 06:18:00,
2013-02-03 00:23:00,42.4,26.0,30.29,NNW,332,10.4,10.4,52,0.00,CLR,,0.00,0.0,WeatherDisplay:10.37,2013-02-03 06:23:00,
2013-02-03 00:28:00,42.2,26.3,30.29,WNW,290,8.1,8.1,53,0.00,CLR,,0.00,0.0,WeatherDisplay:10.37,2013-02-03 06:28:00,
2013-02-03 00:33:00,42.3,26.4,30.29,WNW,282,8.1,8.1,53,0.00,CLR,,0.00,0.0,WeatherDisplay:10.37,2013-02-03 06:33:00,
2013-02-03 00:38:00,42.4,26.0,30.29,WNW,299,10.4,10.4,52,0.00,CLR,,0.00,0.0,WeatherDisplay:10.37,2013-02-03 06:38:00,
2013-02-03 00:43:00,42.6,26.2,30.30,WNW,288,6.9,6.9,52,0.00,CLR,,0.00,0.0,WeatherDisplay:10.37,2013-02-03 06:43:00,
2013-02-03 00:48:00,42.6,26.2,30.30,WNW,284,9.2,9.2,52,0.00,CLR,,0.00,0.0,WeatherDisplay:10.37,2013-02-03 06:48:00,
2013-02-03 00:53:00,42.6,26.2,30.30,WNW,290,8.0,8.0,52,0.00,CLR,,0.00,0.0,WeatherDisplay:10.37,2013-02-03 06:53:00,
2013-02-03 00:58:00,42.5,26.1,30.30,WNW,295,11.5,11.5,52,0.00,CLR,,0.00,0.0,WeatherDisplay:10.37,2013-02-03 06:58:00,
2013-02-03 01:03:00,42.4,26.0,30.30,West,266,7.0,7.0,52,0.00,CLR,,0.00,0.0,WeatherDisplay:10.37,2013-02-03 07:03:00,
2013-02-03 01:08:00,42.0,26.1,30.30,West,268,4.6,4.6,53,0.00,CLR,,0.00,0.0,WeatherDisplay:10.37,2013-02-03 07:08:00,
2013-02-03 01:13:00,41.6,25.7,30.30,WNW,284,5.8,5.8,53,0.00,CLR,,0.00,0.0,WeatherDisplay:10.37,2013-02-03 07:13:00,
2013-02-03 01:18:00,41.3,25.9,30.30,NNW,333,6.9,6.9,54,0.00,CLR,,0.00,0.0,WeatherDisplay:10.37,2013-02-03 07:18:00,
2013-02-03 01:23:00,41.0,25.6,30.30,WNW,286,3.5,3.5,54,0.00,CLR,,0.00,0.0,WeatherDisplay:10.37,2013-02-03 07:23:00,
2013-02-03 01:28:00,40.9,25.5,30.29,NW,305,4.6,4.6,54,0.00,CLR,,0.00,0.0,WeatherDisplay:10.37,2013-02-03 07:28:00,
2013-02-03 01:33:00,40.8,25.9,30.30,West,273,5.0,5.0,55,0.00,CLR,,0.00,0.0,WeatherDisplay:10.37,2013-02-03 07:33:00,
2013-02-03 01:38:00,40.7,25.3,30.30,West,281,3.5,3.5,54,0.00,CLR,,0.00,0.0,WeatherDisplay:10.37,2013-02-03 07:38:00,
2013-02-03 01:43:00,40.5,25.6,30.30,WNW,299,5.8,5.8,55,0.00,CLR,,0.00,0.0,WeatherDisplay:10.37,2013-02-03 07:43:00,
2013-02-03 01:48:00,40.2,25.3,30.30,West,279,5.0,5.0,55,0.00,CLR,,0.00,0.0,WeatherDisplay:10.37,2013-02-03 07:48:00,
2013-02-03 01:53:00,40.1,25.2,30.30,NW,304,6.0,6.0,55,0.00,CLR,,0.00,0.0,WeatherDisplay:10.37,2013-02-03 07:53:00,
2013-02-03 01:58:00,40.5,25.6,30.30,NW,325,9.2,9.2,55,0.00,CLR,,0.00,0.0,WeatherDisplay:10.37,2013-02-03 07:58:00,
2013-02-03 02:03:00,40.9,26.0,30.30,WNW,284,9.2,9.2,55,0.00,CLR,,0.00,0.0,WeatherDisplay:10.37,2013-02-03 08:03:00,
2013-02-03 02:08:00,41.1,25.7,30.30,NW,309,6.9,6.9,54,0.00,CLR,,0.00,0.0,WeatherDisplay:10.37,2013-02-03 08:08:00,
2013-02-03 02:13:00,40.9,25.5,30.30,West,281,6.9,6.9,54,0.00,CLR,,0.00,0.0,WeatherDisplay:10.37,2013-02-03 08:13:00,
2013-02-03 02:18:00,40.6,25.7,30.30,WNW,299,3.5,3.5,55,0.00,CLR,,0.00,0.0,WeatherDisplay:10.37,2013-02-03 08:18:00,
2013-02-03 02:23:00,40.2,25.7,30.30,NW,324,7.0,7.0,56,0.00,CLR,,0.00,0.0,WeatherDisplay:10.37,2013-02-03 08:23:00,
2013-02-03 02:28:00,40.0,25.6,30.30,NW,325,8.0,8.0,56,0.00,CLR,,0.00,0.0,WeatherDisplay:10.37,2013-02-03 08:28:00,
2013-02-03 02:33:00,39.9,25.5,30.30,NW,311,3.5,3.5,56,0.00,CLR,,0.00,0.0,WeatherDisplay:10.37,2013-02-03 08:33:00,
2013-02-03 02:38:00,39.7,25.7,30.30,WNW,295,6.0,6.0,57,0.00,CLR,,0.00,0.0,WeatherDisplay:10.37,2013-02-03 08:38:00,
2013-02-03 02:43:00,39.5,25.5,30.30,NW,310,4.6,4.6,57,0.00,CLR,,0.00,0.0,WeatherDisplay:10.37,2013-02-03 08:43:00,
2013-02-03 02:48:00,39.3,25.7,30.30,NW,311,3.5,3.5,58,0.00,CLR,,0.00,0.0,WeatherDisplay:10.37,2013-02-03 08:48:00,
2013-02-03 02:53:00,39.1,25.6,30.30,WNW,289,3.5,3.5,58,0.00,CLR,,0.00,0.0,WeatherDisplay:10.37,2013-02-03 08:53:00,
2013-02-03 02:58:00,38.8,25.7,30.30,West,277,3.5,3.5,59,0.00,CLR,,0.00,0.0,WeatherDisplay:10.37,2013-02-03 08:58:00,
2013-02-03 03:03:00,38.5,25.4,30.30,WNW,292,3.5,3.5,59,0.00,CLR,,0.00,0.0,WeatherDisplay:10.37,2013-02-03 09:03:00,
2013-02-03 03:08:00,38.0,25.3,30.30,WNW,292,3.5,3.5,60,0.00,CLR,,0.00,0.0,WeatherDisplay:10.37,2013-02-03 09:08:00,
2013-02-03 03:13:00,37.6,25.4,30.30,WNW,284,3.5,3.5,61,0.00,CLR,,0.00,0.0,WeatherDisplay:10.37,2013-02-03 09:13:00,
2013-02-03 03:18:00,37.2,25.4,30.29,NW,305,4.0,4.0,62,0.00,CLR,,0.00,0.0,WeatherDisplay:10.37,2013-02-03 09:18:00,
2013-02-03 03:23:00,36.9,25.1,30.29,NW,313,3.5,3.5,62,0.00,CLR,,0.00,0.0,WeatherDisplay:10.37,2013-02-03 09:23:00,
2013-02-03 03:28:00,36.6,25.2,30.29,NW,313,3.5,3.5,63,0.00,CLR,,0.00,0.0,WeatherDisplay:10.37,2013-02-03 09:28:00,
2013-02-03 03:33:00,36.4,25.0,30.29,WNW,300,3.5,3.5,63,0.00,CLR,,0.00,0.0,WeatherDisplay:10.37,2013-02-03 09:33:00,
2013-02-03 03:38:00,36.1,25.1,30.29,NW,304,2.3,2.3,64,0.00,CLR,,0.00,0.0,WeatherDisplay:10.37,2013-02-03 09:38:00,
2013-02-03 03:43:00,35.8,24.8,30.29,NW,305,3.5,3.5,64,0.00,CLR,,0.00,0.0,WeatherDisplay:10.37,2013-02-03 09:43:00,
2013-02-03 03:48:00,35.6,25.0,30.29,NW,313,3.5,3.5,65,0.00,CLR,,0.00,0.0,WeatherDisplay:10.37,2013-02-03 09:48:00,
2013-02-03 03:53:00,35.6,25.0,30.29,NW,320,3.5,3.5,65,0.00,CLR,,0.00,0.0,WeatherDisplay:10.37,2013-02-03 09:53:00,
2013-02-03 03:58:00,35.7,25.1,30.29,NNW,327,3.5,3.5,65,0.00,CLR,,0.00,0.0,WeatherDisplay:10.37,2013-02-03 09:58:00,
2013-02-03 04:03:00,36.0,25.0,30.29,NNW,331,3.5,3.5,64,0.00,CLR,,0.00,0.0,WeatherDisplay:10.37,2013-02-03 10:03:00,
2013-02-03 04:08:00,36.4,25.4,30.29,NNW,331,5.0,5.0,64,0.00,CLR,,0.00,0.0,WeatherDisplay:10.37,2013-02-03 10:08:00,
2013-02-03 04:13:00,36.7,25.3,30.28,NNW,336,5.8,5.8,63,0.00,CLR,,0.00,0.0,WeatherDisplay:10.37,2013-02-03 10:13:00,
2013-02-03 04:18:00,36.8,25.4,30.28,NW,304,3.5,3.5,63,0.00,CLR,,0.00,0.0,WeatherDisplay:10.37,2013-02-03 10:18:00,
2013-02-03 04:23:00,36.8,25.4,30.28,NNW,332,4.6,4.6,63,0.00,CLR,,0.00,0.0,WeatherDisplay:10.37,2013-02-03 10:23:00,
2013-02-03 04:28:00,36.9,25.5,30.28,NNW,328,4.6,4.6,63,0.00,CLR,,0.00,0.0,WeatherDisplay:10.37,2013-02-03 10:28:00,
2013-02-03 04:33:00,36.8,25.4,30.28,NW,324,4.0,4.0,63,0.00,CLR,,0.00,0.0,WeatherDisplay:10.37,2013-02-03 10:33:00,
2013-02-03 04:38:00,36.8,25.4,30.29,NW,315,2.3,2.3,63,0.00,CLR,,0.00,0.0,WeatherDisplay:10.37,2013-02-03 10:38:00,
2013-02-03 04:43:00,36.6,25.6,30.29,WNW,298,4.6,4.6,64,0.00,CLR,,0.00,0.0,WeatherDisplay:10.37,2013-02-03 10:43:00,
2013-02-03 04:48:00,36.3,25.3,30.29,NW,307,3.5,3.5,64,0.00,CLR,,0.00,0.0,WeatherDisplay:10.37,2013-02-03 10:48:00,
2013-02-03 04:53:00,36.0,25.0,30.29,NW,308,3.5,3.5,64,0.00,CLR,,0.00,0.0,WeatherDisplay:10.37,2013-02-03 10:53:00,
2013-02-03 04:58:00,35.7,25.1,30.30,NNW,329,3.5,3.5,65,0.00,CLR,,0.00,0.0,WeatherDisplay:10.37,2013-02-03 10:58:00,
2013-02-03 05:03:00,35.3,25.1,30.29,NW,325,3.5,3.5,66,0.00,CLR,,0.00,0.0,WeatherDisplay:10.37,2013-02-03 11:03:00,
2013-02-03 05:08:00,35.0,24.8,30.30,NW,325,3.0,3.0,66,0.00,CLR,,0.00,0.0,WeatherDisplay:10.37,2013-02-03 11:08:00,
2013-02-03 05:13:00,34.7,24.9,30.30,NW,325,1.1,1.1,67,0.00,CLR,,0.00,0.0,WeatherDisplay:10.37,2013-02-03 11:13:00,
2013-02-03 05:18:00,34.4,24.6,30.30,NW,325,2.3,2.3,67,0.00,CLR,,0.00,0.0,WeatherDisplay:10.37,2013-02-03 11:18:00,
2013-02-03 05:23:00,34.1,24.6,30.30,NW,325,1.1,1.1,68,0.00,CLR,,0.00,0.0,WeatherDisplay:10.37,2013-02-03 11:23:00,
2013-02-03 05:28:00,33.7,24.6,30.30,NW,325,0.0,0.0,69,0.00,CLR,,0.00,0.0,WeatherDisplay:10.37,2013-02-03 11:28:00,
2013-02-03 05:33:00,33.4,24.0,30.30,NW,325,1.1,1.1,68,0.00,CLR,,0.00,0.0,WeatherDisplay:10.37,2013-02-03 11:33:00,
2013-02-03 05:38:00,32.9,23.8,30.30,NW,325,0.0,0.0,69,0.00,CLR,,0.00,0.0,WeatherDisplay:10.37,2013-02-03 11:38:00,
2013-02-03 05:43:00,32.4,24.0,30.31,NW,325,1.1,1.1,71,0.00,CLR,,0.00,0.0,WeatherDisplay:10.37,2013-02-03 11:43:00,
2013-02-03 05:48:00,31.9,23.6,30.31,NW,325,2.3,2.3,71,0.00,CLR,,0.00,0.0,WeatherDisplay:10.37,2013-02-03 11:48:00,
2013-02-03 05:53:00,31.5,23.5,30.31,NW,325,1.1,1.1,72,0.00,CLR,,0.00,0.0,WeatherDisplay:10.37,2013-02-03 11:53:00,
2013-02-03 05:58:00,31.1,23.5,30.31,NW,325,1.1,1.1,73,0.00,CLR,,0.00,0.0,WeatherDisplay:10.37,2013-02-03 11:58:00,
2013-02-03 06:03:00,30.8,23.5,30.31,NW,325,1.1,1.1,74,0.00,CLR,,0.00,0.0,WeatherDisplay:10.37,2013-02-03 12:03:00,
2013-02-03 06:08:00,30.6,23.6,30.31,NW,325,0.0,0.0,75,0.00,CLR,,0.00,0.0,WeatherDisplay:10.37,2013-02-03 12:08:00,
2013-02-03 06:13:00,30.3,23.3,30.31,NW,325,0.0,0.0,75,0.00,CLR,,0.00,0.0,WeatherDisplay:10.37,2013-02-03 12:13:00,
2013-02-03 06:18:00,30.0,23.4,30.31,NW,325,0.0,0.0,76,0.00,CLR,,0.00,0.0,WeatherDisplay:10.37,2013-02-03 12:18:00,
2013-02-03 06:23:00,29.8,23.2,30.31,NW,325,0.0,0.0,76,0.00,CLR,,0.00,0.0,WeatherDisplay:10.37,2013-02-03 12:23:00,
2013-02-03 06:28:00,29.5,22.9,30.31,NW,325,0.0,0.0,76,0.00,CLR,,0.00,0.0,WeatherDisplay:10.37,2013-02-03 12:28:00,
2013-02-03 06:33:00,29.1,22.5,30.31,NW,325,0.0,0.0,76,0.00,CLR,,0.00,0.0,WeatherDisplay:10.37,2013-02-03 12:33:00,
2013-02-03 06:38:00,28.8,22.2,30.31,NW,325,0.0,0.0,76,0.00,CLR,,0.00,0.0,WeatherDisplay:10.37,2013-02-03 12:38:00,
2013-02-03 06:43:00,28.6,22.3,30.31,NW,325,0.0,0.0,77,0.00,CLR,,0.00,0.0,WeatherDisplay:10.37,2013-02-03 12:43:00,
2013-02-03 06:48:00,28.4,22.4,30.31,NW,325,0.0,0.0,78,0.00,CLR,,0.00,0.0,WeatherDisplay:10.37,2013-02-03 12:48:00,
2013-02-03 06:53:00,28.1,22.4,30.31,NW,325,0.0,0.0,79,0.00,CLR,,0.00,0.0,WeatherDisplay:10.37,2013-02-03 12:53:00,
2013-02-03 06:58:00,28.0,22.3,30.31,NW,325,0.0,0.0,79,0.00,CLR,,0.00,0.0,WeatherDisplay:10.37,2013-02-03 12:58:00,
2013-02-03 07:03:00,27.8,22.4,30.31,NW,325,0.0,0.0,80,0.00,CLR,,0.00,0.0,WeatherDisplay:10.37,2013-02-03 13:03:00,
2013-02-03 07:08:00,27.7,22.3,30.31,NW,325,0.0,0.0,80,0.00,CLR,,0.00,0.0,WeatherDisplay:10.37,2013-02-03 13:08:00,
2013-02-03 07:13:00,27.5,22.1,30.31,NW,325,0.0,0.0,80,0.00,CLR,,0.00,0.0,WeatherDisplay:10.37,2013-02-03 13:13:00,
2013-02-03 07:18:00,27.3,21.9,30.31,NW,325,0.0,0.0,80,0.00,CLR,,0.00,0.0,WeatherDisplay:10.37,2013-02-03 13:18:00,
2013-02-03 07:23:00,27.1,21.7,30.31,NW,325,0.0,0.0,80,0.00,CLR,,0.00,0.0,WeatherDisplay:10.37,2013-02-03 13:23:00,
2013-02-03 07:28:00,26.9,21.8,30.31,NW,325,0.0,0.0,81,0.00,CLR,,0.00,0.0,WeatherDisplay:10.37,2013-02-03 13:28:00,
2013-02-03 07:33:00,26.8,21.8,30.31,NW,325,0.0,0.0,81,0.00,OVC,,0.00,5.0,WeatherDisplay:10.37,2013-02-03 13:33:00,
2013-02-03 07:38:00,26.6,21.6,30.31,NW,325,0.0,0.0,81,0.00,CLR,,0.00,7.0,WeatherDisplay:10.37,2013-02-03 13:38:00,
2013-02-03 07:43:00,26.6,21.8,30.32,NW,325,0.0,0.0,82,0.00,SCT,,0.00,9.0,WeatherDisplay:10.37,2013-02-03 13:43:00,
2013-02-03 07:48:00,26.6,22.1,30.31,NW,325,0.0,0.0,83,0.00,BKN,,0.00,11.0,WeatherDisplay:10.37,2013-02-03 13:48:00,
2013-02-03 07:53:00,26.7,22.2,30.32,NW,325,0.0,0.0,83,0.00,BKN,,0.00,12.0,WeatherDisplay:10.37,2013-02-03 13:53:00,
2013-02-03 07:58:00,26.7,22.5,30.31,NW,325,0.0,0.0,84,0.00,BKN,,0.00,14.0,WeatherDisplay:10.37,2013-02-03 13:58:00,
2013-02-03 08:03:00,26.8,22.3,30.31,NW,325,0.0,0.0,83,0.00,BKN,,0.00,18.0,WeatherDisplay:10.37,2013-02-03 14:03:00,
2013-02-03 08:08:00,26.7,22.2,30.31,NW,325,0.0,0.0,83,0.00,BKN,,0.00,19.0,WeatherDisplay:10.37,2013-02-03 14:08:00,
2013-02-03 08:13:00,26.7,22.2,30.31,NW,325,0.0,0.0,83,0.00,BKN,,0.00,19.0,WeatherDisplay:10.37,2013-02-03 14:13:00,
2013-02-03 08:18:00,26.9,23.0,30.31,NW,325,0.0,0.0,85,0.00,BKN,,0.00,25.0,WeatherDisplay:10.37,2013-02-03 14:18:00,
2013-02-03 08:23:00,27.2,23.3,30.31,NW,325,0.0,0.0,85,0.00,BKN,,0.00,25.0,WeatherDisplay:10.37,2013-02-03 14:23:00,
2013-02-03 08:28:00,27.8,24.2,30.31,NW,325,0.0,0.0,86,0.00,BKN,,0.00,30.0,WeatherDisplay:10.37,2013-02-03 14:28:00,
2013-02-03 08:33:00,28.2,24.6,30.31,NW,325,0.0,0.0,86,0.00,BKN,,0.00,28.0,WeatherDisplay:10.37,2013-02-03 14:33:00,
2013-02-03 08:38:00,28.8,24.9,30.31,NW,325,1.1,1.1,85,0.00,BKN,,0.00,40.0,WeatherDisplay:10.37,2013-02-03 14:38:00,
2013-02-03 08:43:00,29.3,25.4,30.31,NNE,13,2.3,2.3,85,0.00,BKN,,0.00,30.0,WeatherDisplay:10.37,2013-02-03 14:43:00,
2013-02-03 08:48:00,30.2,25.9,30.31,NNE,13,1.1,1.1,84,0.00,BKN,,0.00,47.0,WeatherDisplay:10.37,2013-02-03 14:48:00,
2013-02-03 08:53:00,31.3,26.4,30.31,NNE,19,3.5,3.5,82,0.00,BKN,,0.00,40.0,WeatherDisplay:10.37,2013-02-03 14:53:00,
2013-02-03 08:58:00,32.6,27.1,30.31,NNE,19,0.0,0.0,80,0.00,BKN,,0.00,49.0,WeatherDisplay:10.37,2013-02-03 14:58:00,
2013-02-03 09:03:00,33.9,27.4,30.31,NNE,20,2.3,2.3,77,0.00,BKN,,0.00,83.0,WeatherDisplay:10.37,2013-02-03 15:03:00,
2013-02-03 09:08:00,35.1,28.0,30.31,East,85,2.0,2.0,75,0.00,BKN,,0.00,69.0,WeatherDisplay:10.37,2013-02-03 15:08:00,
2013-02-03 09:13:00,36.3,28.1,30.31,ENE,76,3.5,3.5,72,0.00,BKN,,0.00,79.0,WeatherDisplay:10.37,2013-02-03 15:13:00,
2013-02-03 09:18:00,37.3,28.1,30.31,ENE,78,2.3,2.3,69,0.00,BKN,,0.00,86.0,WeatherDisplay:10.37,2013-02-03 15:18:00,
2013-02-03 09:23:00,38.0,28.0,30.31,ENE,78,4.6,4.6,67,0.00,BKN,,0.00,81.0,WeatherDisplay:10.37,2013-02-03 15:23:00,
2013-02-03 09:28:00,38.7,28.3,30.30,ENE,78,3.5,3.5,66,0.00,BKN,,0.00,86.0,WeatherDisplay:10.37,2013-02-03 15:28:00,
2013-02-03 09:33:00,39.2,28.4,30.30,ENE,78,3.5,3.5,65,0.00,BKN,,0.00,97.0,WeatherDisplay:10.37,2013-02-03 15:33:00,
2013-02-03 09:38:00,39.8,28.6,30.29,ENE,78,3.5,3.5,64,0.00,BKN,,0.00,109.0,WeatherDisplay:10.37,2013-02-03 15:38:00,
2013-02-03 09:43:00,40.4,28.8,30.29,ENE,78,3.5,3.5,63,0.00,BKN,,0.00,142.0,WeatherDisplay:10.37,2013-02-03 15:43:00,
2013-02-03 09:48:00,40.9,28.9,30.29,ENE,78,3.5,3.5,62,0.00,BKN,,0.00,100.0,WeatherDisplay:10.37,2013-02-03 15:48:00,
2013-02-03 09:53:00,41.2,28.4,30.29,East,80,3.5,3.5,60,0.00,BKN,,0.00,88.0,WeatherDisplay:10.37,2013-02-03 15:53:00,
2013-02-03 09:58:00,41.7,28.4,30.29,East,94,2.3,2.3,59,0.00,SCT,,0.00,183.0,WeatherDisplay:10.37,2013-02-03 15:58:00,
2013-02-03 10:03:00,42.2,28.0,30.28,East,81,3.5,3.5,57,0.00,SCT,,0.00,279.0,WeatherDisplay:10.37,2013-02-03 16:03:00,
2013-02-03 10:08:00,42.5,27.5,30.28,East,97,5.8,5.8,55,0.00,SCT,,0.00,221.0,WeatherDisplay:10.37,2013-02-03 16:08:00,
2013-02-03 10:13:00,43.0,27.5,30.28,ENE,63,7.0,7.0,54,0.00,SCT,,0.00,295.0,WeatherDisplay:10.37,2013-02-03 16:13:00,
2013-02-03 10:18:00,43.4,27.4,30.28,NE,51,4.6,4.6,53,0.00,CLR,,0.00,376.0,WeatherDisplay:10.37,2013-02-03 16:18:00,
2013-02-03 10:23:00,44.0,27.0,30.28,ESE,120,5.8,5.8,51,0.00,CLR,,0.00,411.0,WeatherDisplay:10.37,2013-02-03 16:23:00,
2013-02-03 10:28:00,44.4,25.9,30.28,East,90,6.9,6.9,48,0.00,CLR,,0.00,357.0,WeatherDisplay:10.37,2013-02-03 16:28:00,
2013-02-03 10:33:00,44.7,26.7,30.28,ESE,103,5.8,5.8,49,0.00,CLR,,0.00,399.0,WeatherDisplay:10.37,2013-02-03 16:33:00,
2013-02-03 10:38:00,45.1,27.1,30.28,East,84,2.3,2.3,49,0.00,CLR,,0.00,330.0,WeatherDisplay:10.37,2013-02-03 16:38:00,
2013-02-03 10:43:00,45.8,26.2,30.28,SE,126,3.5,3.5,46,0.00,CLR,,0.00,439.0,WeatherDisplay:10.37,2013-02-03 16:43:00,
2013-02-03 10:48:00,46.4,25.6,30.27,ENE,73,4.6,4.6,44,0.00,CLR,,0.00,394.0,WeatherDisplay:10.37,2013-02-03 16:48:00,
2013-02-03 10:53:00,46.5,26.8,30.27,East,88,6.9,6.9,46,0.00,CLR,,0.00,464.0,WeatherDisplay:10.37,2013-02-03 16:53:00,
2013-02-03 10:58:00,46.6,26.4,30.27,East,79,4.6,4.6,45,0.00,CLR,,0.00,443.0,WeatherDisplay:10.37,2013-02-03 16:58:00,
2013-02-03 11:03:00,47.1,26.3,30.27,East,80,6.0,6.0,44,0.00,CLR,,0.00,436.0,WeatherDisplay:10.37,2013-02-03 17:03:00,
2013-02-03 11:08:00,47.7,26.3,30.26,SE,136,4.0,4.0,43,0.00,CLR,,0.00,490.0,WeatherDisplay:10.37,2013-02-03 17:08:00,
2013-02-03 11:13:00,48.2,26.7,30.26,SSE,147,6.9,6.9,43,0.00,CLR,,0.00,520.0,WeatherDisplay:10.37,2013-02-03 17:13:00,
2013-02-03 11:18:00,48.6,26.5,30.26,East,99,8.1,8.1,42,0.00,CLR,,0.00,434.0,WeatherDisplay:10.37,2013-02-03 17:18:00,
2013-02-03 11:23:00,48.9,27.4,30.26,SE,144,6.9,6.9,43,0.00,CLR,,0.00,499.0,WeatherDisplay:10.37,2013-02-03 17:23:00,
2013-02-03 11:28:00,49.5,27.3,30.25,East,82,6.0,6.0,42,0.00,CLR,,0.00,524.0,WeatherDisplay:10.37,2013-02-03 17:28:00,
2013-02-03 11:33:00,49.8,27.0,30.25,ENE,78,4.6,4.6,41,0.00,CLR,,0.00,492.0,WeatherDisplay:10.37,2013-02-03 17:33:00,
2013-02-03 11:38:00,50.2,26.2,30.25,South,177,8.1,8.1,39,0.00,CLR,,0.00,468.0,WeatherDisplay:10.37,2013-02-03 17:38:00,
2013-02-03 11:43:00,50.1,25.5,30.25,ESE,113,10.4,10.4,38,0.00,CLR,,0.00,482.0,WeatherDisplay:10.37,2013-02-03 17:43:00,
2013-02-03 11:48:00,50.0,26.0,30.24,East,80,6.0,6.0,39,0.00,CLR,,0.00,489.0,WeatherDisplay:10.37,2013-02-03 17:48:00,
2013-02-03 11:53:00,50.1,26.1,30.24,ESE,112,8.1,8.1,39,0.00,CLR,,0.00,494.0,WeatherDisplay:10.37,2013-02-03 17:53:00,
2013-02-03 11:58:00,50.5,26.4,30.24,East,98,4.0,4.3,39,0.00,CLR,,0.00,540.0,WeatherDisplay:10.37,2013-02-03 17:58:00,
2013-02-03 12:03:00,51.0,25.6,30.24,SE,125,4.6,4.6,37,0.00,CLR,,0.00,533.0,WeatherDisplay:10.37,2013-02-03 18:03:00,
2013-02-03 12:08:00,51.6,25.5,30.23,East,88,5.8,5.8,36,0.00,CLR,,0.00,441.0,WeatherDisplay:10.37,2013-02-03 18:08:00,
2013-02-03 12:13:00,51.7,26.2,30.23,SE,131,6.9,6.9,37,0.00,FEW,,0.00,457.0,WeatherDisplay:10.37,2013-02-03 18:13:00,
2013-02-03 12:18:00,52.0,25.8,30.22,SSE,148,9.2,9.2,36,0.00,CLR,,0.00,526.0,WeatherDisplay:10.37,2013-02-03 18:18:00,
2013-02-03 12:23:00,52.1,25.3,30.21,South,182,10.4,10.4,35,0.00,CLR,,0.00,533.0,WeatherDisplay:10.37,2013-02-03 18:23:00,
2013-02-03 12:28:00,52.4,25.5,30.21,SE,126,10.4,10.4,35,0.00,CLR,,0.00,529.0,WeatherDisplay:10.37,2013-02-03 18:28:00,
2013-02-03 12:33:00,52.8,26.6,30.21,SE,142,6.0,6.0,36,0.00,FEW,,0.00,466.0,WeatherDisplay:10.37,2013-02-03 18:33:00,
2013-02-03 12:38:00,53.2,26.2,30.20,SSE,147,8.0,8.0,35,0.00,SCT,,0.00,359.0,WeatherDisplay:10.37,2013-02-03 18:38:00,
2013-02-03 12:43:00,53.2,26.9,30.20,SE,146,8.0,8.0,36,0.00,SCT,,0.00,320.0,WeatherDisplay:10.37,2013-02-03 18:43:00,
2013-02-03 12:48:00,53.1,25.4,30.19,SE,142,7.0,7.0,34,0.00,SCT,,0.00,399.0,WeatherDisplay:10.37,2013-02-03 18:48:00,
2013-02-03 12:53:00,53.2,25.5,30.19,SSE,153,9.0,9.0,34,0.00,SCT,,0.00,387.0,WeatherDisplay:10.37,2013-02-03 18:53:00,
2013-02-03 12:58:00,53.3,25.6,30.18,SSE,150,6.9,6.9,34,0.00,SCT,,0.00,397.0,WeatherDisplay:10.37,2013-02-03 18:58:00,
2013-02-03 13:03:00,53.3,25.6,30.18,SSW,196,9.2,9.2,34,0.00,BKN,,0.00,290.0,WeatherDisplay:10.37,2013-02-03 19:03:00,
2013-02-03 13:08:00,53.3,27.0,30.17,SSE,161,13.8,13.8,36,0.00,BKN,,0.00,248.0,WeatherDisplay:10.37,2013-02-03 19:08:00,
2013-02-03 13:13:00,53.5,27.2,30.17,SSE,154,9.2,9.2,36,0.00,SCT,,0.00,394.0,WeatherDisplay:10.37,2013-02-03 19:13:00,
2013-02-03 13:18:00,53.8,27.4,30.17,South,177,6.9,6.9,36,0.00,SCT,,0.00,330.0,WeatherDisplay:10.37,2013-02-03 19:18:00,
2013-02-03 13:23:00,54.1,26.3,30.16,South,170,11.5,11.5,34,0.00,FEW,,0.00,478.0,WeatherDisplay:10.37,2013-02-03 19:23:00,
2013-02-03 13:28:00,54.4,26.6,30.16,South,188,11.5,11.5,34,0.00,FEW,,0.00,287.0,WeatherDisplay:10.37,2013-02-03 19:28:00,
2013-02-03 13:33:00,54.8,26.2,30.15,South,182,11.5,11.5,33,0.00,SCT,,0.00,183.0,WeatherDisplay:10.37,2013-02-03 19:33:00,
2013-02-03 13:38:00,54.9,26.3,30.15,South,185,9.2,9.2,33,0.00,FEW,,0.00,408.0,WeatherDisplay:10.37,2013-02-03 19:38:00,
2013-02-03 13:43:00,55.0,26.4,30.14,South,173,10.0,10.0,33,0.00,SCT,,0.00,315.0,WeatherDisplay:10.37,2013-02-03 19:43:00,
2013-02-03 13:48:00,55.2,26.6,30.14,SSE,151,10.4,10.4,33,0.00,BKN,,0.00,276.0,WeatherDisplay:10.37,2013-02-03 19:48:00,
2013-02-03 13:53:00,55.4,26.7,30.13,SSE,154,10.4,10.4,33,0.00,CLR,,0.00,454.0,WeatherDisplay:10.37,2013-02-03 19:53:00,
2013-02-03 13:58:00,55.7,27.0,30.13,SSE,157,11.5,11.5,33,0.00,CLR,,0.00,454.0,WeatherDisplay:10.37,2013-02-03 19:58:00,
2013-02-03 14:03:00,56.0,27.3,30.12,SE,135,11.5,11.5,33,0.00,CLR,,0.00,475.0,WeatherDisplay:10.37,2013-02-03 20:03:00,
2013-02-03 14:08:00,56.1,25.8,30.12,South,179,12.7,12.7,31,0.00,FEW,,0.00,399.0,WeatherDisplay:10.37,2013-02-03 20:08:00,
2013-02-03 14:13:00,56.3,26.0,30.11,South,188,11.5,11.5,31,0.00,CLR,,0.00,413.0,WeatherDisplay:10.37,2013-02-03 20:13:00,
2013-02-03 14:18:00,56.2,25.9,30.11,SSW,197,12.0,12.0,31,0.00,CLR,,0.00,422.0,WeatherDisplay:10.37,2013-02-03 20:18:00,
2013-02-03 14:23:00,56.1,26.6,30.11,SE,135,15.0,15.0,32,0.00,CLR,,0.00,369.0,WeatherDisplay:10.37,2013-02-03 20:23:00,
2013-02-03 14:28:00,56.2,26.7,30.10,South,172,8.1,8.1,32,0.00,FEW,,0.00,362.0,WeatherDisplay:10.37,2013-02-03 20:28:00,
2013-02-03 14:33:00,56.6,26.3,30.10,SE,144,17.3,17.3,31,0.00,CLR,,0.00,448.0,WeatherDisplay:10.37,2013-02-03 20:33:00,
2013-02-03 14:38:00,56.9,27.3,30.09,SE,142,8.1,8.1,32,0.00,CLR,,0.00,462.0,WeatherDisplay:10.37,2013-02-03 20:38:00,
2013-02-03 14:43:00,57.3,27.7,30.09,SSE,166,15.0,15.0,32,0.00,CLR,,0.00,459.0,WeatherDisplay:10.37,2013-02-03 20:43:00,
2013-02-03 14:48:00,57.5,26.3,30.09,SSW,197,11.0,11.0,30,0.00,CLR,,0.00,411.0,WeatherDisplay:10.37,2013-02-03 20:48:00,
2013-02-03 14:53:00,57.5,25.5,30.08,SE,141,12.0,12.0,29,0.00,CLR,,0.00,455.0,WeatherDisplay:10.37,2013-02-03 20:53:00,
2013-02-03 14:58:00,57.6,25.5,30.08,SSE,155,17.3,17.3,29,0.00,CLR,,0.00,429.0,WeatherDisplay:10.37,2013-02-03 20:58:00,
2013-02-03 15:03:00,57.6,25.5,30.08,SSE,160,10.4,10.4,29,0.00,CLR,,0.00,441.0,WeatherDisplay:10.37,2013-02-03 21:03:00,
2013-02-03 15:08:00,57.6,26.4,30.08,SSW,196,6.9,6.9,30,0.00,CLR,,0.00,406.0,WeatherDisplay:10.37,2013-02-03 21:08:00,
2013-02-03 15:13:00,57.8,25.7,30.08,ESE,114,16.0,16.0,29,0.00,CLR,,0.00,380.0,WeatherDisplay:10.37,2013-02-03 21:13:00,
2013-02-03 15:18:00,57.6,26.4,30.07,SSE,163,17.3,17.3,30,0.00,CLR,,0.00,352.0,WeatherDisplay:10.37,2013-02-03 21:18:00,
2013-02-03 15:23:00,57.5,26.3,30.07,SE,140,13.8,13.8,30,0.00,CLR,,0.00,348.0,WeatherDisplay:10.37,2013-02-03 21:23:00,
2013-02-03 15:28:00,57.4,25.4,30.07,SSE,147,17.3,17.3,29,0.00,CLR,,0.00,338.0,WeatherDisplay:10.37,2013-02-03 21:28:00,
2013-02-03 15:33:00,57.4,26.2,30.07,SSE,148,12.7,12.7,30,0.00,CLR,,0.00,214.0,WeatherDisplay:10.37,2013-02-03 21:33:00,
2013-02-03 15:38:00,57.2,26.0,30.07,South,175,14.0,14.0,30,0.00,SCT,,0.00,178.0,WeatherDisplay:10.37,2013-02-03 21:38:00,
2013-02-03 15:43:00,56.9,26.5,30.06,South,184,11.5,11.5,31,0.00,FEW,,0.00,239.0,WeatherDisplay:10.37,2013-02-03 21:43:00,
2013-02-03 15:48:00,56.8,26.5,30.06,South,180,10.0,10.0,31,0.00,SCT,,0.00,142.0,WeatherDisplay:10.37,2013-02-03 21:48:00,
2013-02-03 15:53:00,56.9,26.5,30.06,SSW,210,15.0,15.0,31,0.00,CLR,,0.00,281.0,WeatherDisplay:10.37,2013-02-03 21:53:00,
2013-02-03 15:58:00,56.8,26.5,30.06,ESE,123,17.3,17.3,31,0.00,CLR,,0.00,260.0,WeatherDisplay:10.37,2013-02-03 21:58:00,
2013-02-03 16:03:00,56.7,26.4,30.06,South,188,10.4,10.4,31,0.00,CLR,,0.00,186.0,WeatherDisplay:10.37,2013-02-03 22:03:00,
2013-02-03 16:08:00,56.5,26.2,30.06,South,187,10.4,10.4,31,0.00,CLR,,0.00,181.0,WeatherDisplay:10.37,2013-02-03 22:08:00,
2013-02-03 16:13:00,56.3,26.0,30.05,SSE,161,11.5,11.5,31,0.00,CLR,,0.00,225.0,WeatherDisplay:10.37,2013-02-03 22:13:00,
2013-02-03 16:18:00,56.2,25.9,30.05,SE,128,11.5,11.5,31,0.00,CLR,,0.00,229.0,WeatherDisplay:10.37,2013-02-03 22:18:00,
2013-02-03 16:23:00,56.1,26.6,30.04,South,188,10.4,10.4,32,0.00,CLR,,0.00,135.0,WeatherDisplay:10.37,2013-02-03 22:23:00,
2013-02-03 16:28:00,56.0,26.5,30.04,ESE,123,16.0,16.0,32,0.00,BKN,,0.00,63.0,WeatherDisplay:10.37,2013-02-03 22:28:00,
2013-02-03 16:33:00,55.7,26.3,30.04,South,186,8.1,8.1,32,0.00,BKN,,0.00,62.0,WeatherDisplay:10.37,2013-02-03 22:33:00,
2013-02-03 16:38:00,55.5,26.8,30.03,SSW,192,16.1,16.1,33,0.00,BKN,,0.00,67.0,WeatherDisplay:10.37,2013-02-03 22:38:00,
2013-02-03 16:43:00,55.4,26.7,30.03,SSE,147,15.0,15.0,33,0.00,BKN,,0.00,70.0,WeatherDisplay:10.37,2013-02-03 22:43:00,
2013-02-03 16:48:00,55.3,26.7,30.03,SSE,157,11.5,11.5,33,0.00,SCT,,0.00,77.0,WeatherDisplay:10.37,2013-02-03 22:48:00,
2013-02-03 16:53:00,55.3,27.4,30.02,SE,134,8.1,8.1,34,0.00,SCT,,0.00,81.0,WeatherDisplay:10.37,2013-02-03 22:53:00,
2013-02-03 16:58:00,55.3,26.7,30.02,ESE,103,11.5,11.5,33,0.00,SCT,,0.00,67.0,WeatherDisplay:10.37,2013-02-03 22:58:00,
2013-02-03 17:03:00,55.2,27.3,30.02,SE,144,6.0,6.0,34,0.00,SCT,,0.00,60.0,WeatherDisplay:10.37,2013-02-03 23:03:00,
2013-02-03 17:08:00,55.1,27.2,30.01,SE,144,8.1,8.1,34,0.00,SCT,,0.00,53.0,WeatherDisplay:10.37,2013-02-03 23:08:00,
2013-02-03 17:13:00,55.0,27.8,30.01,SSE,150,9.2,9.2,35,0.00,SCT,,0.00,46.0,WeatherDisplay:10.37,2013-02-03 23:13:00,
2013-02-03 17:18:00,55.0,27.8,30.01,SE,146,9.0,9.0,35,0.00,SCT,,0.00,40.0,WeatherDisplay:10.37,2013-02-03 23:18:00,
2013-02-03 17:23:00,54.9,27.7,30.00,SW,222,10.0,10.0,35,0.00,SCT,,0.00,37.0,WeatherDisplay:10.37,2013-02-03 23:23:00,
2013-02-03 17:28:00,54.8,27.6,30.00,SSW,204,11.5,11.5,35,0.00,SCT,,0.00,30.0,WeatherDisplay:10.37,2013-02-03 23:28:00,
2013-02-03 17:33:00,54.6,27.5,30.00,SE,136,10.4,10.4,35,0.00,SCT,,0.00,23.0,WeatherDisplay:10.37,2013-02-03 23:33:00,
2013-02-03 17:38:00,54.3,27.2,30.00,South,170,5.8,5.8,35,0.00,SCT,,0.00,18.0,WeatherDisplay:10.37,2013-02-03 23:38:00,
2013-02-03 17:43:00,54.0,27.6,30.00,SE,144,8.1,8.1,36,0.00,SCT,,0.00,12.0,WeatherDisplay:10.37,2013-02-03 23:43:00,
2013-02-03 17:48:00,53.7,27.4,30.00,SSW,209,8.1,8.1,36,0.00,CLR,,0.00,7.0,WeatherDisplay:10.37,2013-02-03 23:48:00,
2013-02-03 17:53:00,53.3,27.0,30.00,SSE,149,9.2,9.2,36,0.00,OVC,,0.00,0.0,WeatherDisplay:10.37,2013-02-03 23:53:00,
2013-02-03 17:58:00,53.0,27.4,30.00,ESE,109,8.1,8.1,37,0.00,CLR,,0.00,0.0,WeatherDisplay:10.37,2013-02-03 23:58:00,
2013-02-03 18:03:00,52.6,27.0,29.99,SE,136,8.1,8.1,37,0.00,CLR,,0.00,0.0,WeatherDisplay:10.37,2013-02-04 00:03:00,
2013-02-03 18:08:00,52.4,27.5,29.99,SSE,166,6.9,6.9,38,0.00,CLR,,0.00,0.0,WeatherDisplay:10.37,2013-02-04 00:08:00,
2013-02-03 18:13:00,52.1,27.2,29.99,SSE,155,5.8,5.8,38,0.00,CLR,,0.00,0.0,WeatherDisplay:10.37,2013-02-04 00:13:00,
2013-02-03 18:18:00,51.9,27.7,29.99,SE,130,4.0,4.0,39,0.00,CLR,,0.00,0.0,WeatherDisplay:10.37,2013-02-04 00:18:00,
2013-02-03 18:23:00,51.8,27.6,29.99,SE,136,9.0,9.0,39,0.00,CLR,,0.00,0.0,WeatherDisplay:10.37,2013-02-04 00:23:00,
2013-02-03 18:28:00,51.6,28.0,29.98,SE,127,6.9,6.9,40,0.00,CLR,,0.00,0.0,WeatherDisplay:10.37,2013-02-04 00:28:00,
2013-02-03 18:33:00,51.4,27.9,29.98,South,186,9.2,9.2,40,0.00,CLR,,0.00,0.0,WeatherDisplay:10.37,2013-02-04 00:33:00,
2013-02-03 18:38:00,51.3,27.8,29.98,South,174,9.2,9.2,40,0.00,CLR,,0.00,0.0,WeatherDisplay:10.37,2013-02-04 00:38:00,
2013-02-03 18:43:00,51.1,28.2,29.98,SSE,158,9.2,9.2,41,0.00,CLR,,0.00,0.0,WeatherDisplay:10.37,2013-02-04 00:43:00,
2013-02-03 18:48:00,51.0,28.1,29.97,SSE,153,7.0,7.0,41,0.00,CLR,,0.00,0.0,WeatherDisplay:10.37,2013-02-04 00:48:00,
2013-02-03 18:53:00,50.8,28.5,29.97,SSE,163,4.0,4.0,42,0.00,CLR,,0.00,0.0,WeatherDisplay:10.37,2013-02-04 00:53:00,
2013-02-03 18:58:00,50.5,28.2,29.97,SSE,148,5.8,5.8,42,0.00,CLR,,0.00,0.0,WeatherDisplay:10.37,2013-02-04 00:58:00,
2013-02-03 19:03:00,50.4,28.1,29.97,SE,142,9.2,9.2,42,0.00,CLR,,0.00,0.0,WeatherDisplay:10.37,2013-02-04 01:03:00,
2013-02-03 19:08:00,50.3,28.1,29.97,SSE,161,11.5,11.5,42,0.00,CLR,,0.00,0.0,WeatherDisplay:10.37,2013-02-04 01:08:00,
2013-02-03 19:13:00,50.2,28.5,29.97,SW,231,10.4,10.4,43,0.00,CLR,,0.00,0.0,WeatherDisplay:10.37,2013-02-04 01:13:00,
2013-02-03 19:18:00,50.2,28.5,29.97,SSE,155,6.9,6.9,43,0.00,CLR,,0.00,0.0,WeatherDisplay:10.37,2013-02-04 01:18:00,
2013-02-03 19:23:00,50.1,28.4,29.96,South,169,6.9,6.9,43,0.00,CLR,,0.00,0.0,WeatherDisplay:10.37,2013-02-04 01:23:00,
2013-02-03 19:28:00,50.1,28.4,29.96,SSE,149,8.1,8.1,43,0.00,CLR,,0.00,0.0,WeatherDisplay:10.37,2013-02-04 01:28:00,
2013-02-03 19:33:00,50.0,28.4,29.96,SSE,147,8.1,8.1,43,0.00,CLR,,0.00,0.0,WeatherDisplay:10.37,2013-02-04 01:33:00,
2013-02-03 19:38:00,49.9,28.8,29.96,SE,134,8.1,8.1,44,0.00,CLR,,0.00,0.0,WeatherDisplay:10.37,2013-02-04 01:38:00,
2013-02-03 19:43:00,49.8,28.7,29.96,South,182,8.1,8.1,44,0.00,CLR,,0.00,0.0,WeatherDisplay:10.37,2013-02-04 01:43:00,
2013-02-03 19:48:00,49.6,28.6,29.95,ESE,119,6.9,6.9,44,0.00,CLR,,0.00,0.0,WeatherDisplay:10.37,2013-02-04 01:48:00,
2013-02-03 19:53:00,49.5,29.0,29.96,SSW,194,7.0,7.0,45,0.00,CLR,,0.00,0.0,WeatherDisplay:10.37,2013-02-04 01:53:00,
2013-02-03 19:58:00,49.4,28.9,29.95,SE,135,8.1,8.1,45,0.00,CLR,,0.00,0.0,WeatherDisplay:10.37,2013-02-04 01:58:00,
2013-02-03 20:03:00,49.4,28.9,29.95,ESE,118,10.4,10.4,45,0.00,CLR,,0.00,0.0,WeatherDisplay:10.37,2013-02-04 02:03:00,
2013-02-03 20:08:00,49.4,29.5,29.95,SSE,155,10.4,10.4,46,0.00,CLR,,0.00,0.0,WeatherDisplay:10.37,2013-02-04 02:08:00,
2013-02-03 20:13:00,49.4,29.5,29.95,South,173,9.2,9.2,46,0.00,CLR,,0.00,0.0,WeatherDisplay:10.37,2013-02-04 02:13:00,
2013-02-03 20:18:00,49.3,29.4,29.94,SSE,159,9.2,9.2,46,0.00,CLR,,0.00,0.0,WeatherDisplay:10.37,2013-02-04 02:18:00,
2013-02-03 20:23:00,49.2,29.3,29.94,SSE,157,3.5,3.5,46,0.00,CLR,,0.00,0.0,WeatherDisplay:10.37,2013-02-04 02:23:00,
2013-02-03 20:28:00,49.1,29.2,29.94,SSE,167,11.5,11.5,46,0.00,CLR,,0.00,0.0,WeatherDisplay:10.37,2013-02-04 02:28:00,
2013-02-03 20:33:00,49.1,29.2,29.94,South,179,8.1,8.1,46,0.00,CLR,,0.00,0.0,WeatherDisplay:10.37,2013-02-04 02:33:00,
2013-02-03 20:38:00,49.0,29.6,29.94,SSE,165,8.1,8.1,47,0.00,CLR,,0.00,0.0,WeatherDisplay:10.37,2013-02-04 02:38:00,
2013-02-03 20:43:00,49.1,29.7,29.94,SSE,147,9.2,9.2,47,0.00,CLR,,0.00,0.0,WeatherDisplay:10.37,2013-02-04 02:43:00,
2013-02-03 20:48:00,49.1,29.7,29.94,SSE,167,6.9,6.9,47,0.00,CLR,,0.00,0.0,WeatherDisplay:10.37,2013-02-04 02:48:00,
2013-02-03 20:53:00,49.1,29.7,29.93,SSE,149,6.9,6.9,47,0.00,CLR,,0.00,0.0,WeatherDisplay:10.37,2013-02-04 02:53:00,
2013-02-03 20:58:00,49.1,29.7,29.93,SSE,150,9.2,9.2,47,0.00,CLR,,0.00,0.0,WeatherDisplay:10.37,2013-02-04 02:58:00,
2013-02-03 21:03:00,49.2,29.8,29.93,South,175,11.5,11.5,47,0.00,CLR,,0.00,0.0,WeatherDisplay:10.37,2013-02-04 03:03:00,
2013-02-03 21:08:00,49.4,30.0,29.93,South,175,10.4,10.4,47,0.00,CLR,,0.00,0.0,WeatherDisplay:10.37,2013-02-04 03:08:00,
2013-02-03 21:13:00,49.6,30.2,29.92,SSW,192,12.0,12.0,47,0.00,CLR,,0.00,0.0,WeatherDisplay:10.37,2013-02-04 03:13:00,
2013-02-03 21:18:00,49.7,30.3,29.92,South,173,8.1,8.1,47,0.00,CLR,,0.00,0.0,WeatherDisplay:10.37,2013-02-04 03:18:00,
2013-02-03 21:23:00,49.7,30.3,29.92,South,182,11.5,11.5,47,0.00,CLR,,0.00,0.0,WeatherDisplay:10.37,2013-02-04 03:23:00,
2013-02-03 21:28:00,49.7,30.3,29.92,SSE,157,10.4,10.4,47,0.00,CLR,,0.00,0.0,WeatherDisplay:10.37,2013-02-04 03:28:00,
2013-02-03 21:33:00,49.7,30.3,29.92,SE,135,11.5,11.5,47,0.00,CLR,,0.00,0.0,WeatherDisplay:10.37,2013-02-04 03:33:00,
2013-02-03 21:38:00,49.6,30.2,29.92,SE,140,9.2,9.2,47,0.00,CLR,,0.00,0.0,WeatherDisplay:10.37,2013-02-04 03:38:00,
2013-02-03 21:43:00,49.5,30.1,29.91,SSE,168,11.5,11.5,47,0.00,CLR,,0.00,0.0,WeatherDisplay:10.37,2013-02-04 03:43:00,
2013-02-03 21:48:00,49.4,30.5,29.91,SW,215,16.1,16.1,48,0.00,CLR,,0.00,0.0,WeatherDisplay:10.37,2013-02-04 03:48:00,
2013-02-03 21:53:00,49.4,30.5,29.91,South,186,9.2,9.2,48,0.00,CLR,,0.00,0.0,WeatherDisplay:10.37,2013-02-04 03:53:00,
2013-02-03 21:58:00,49.3,30.4,29.91,South,178,10.4,10.4,48,0.00,CLR,,0.00,0.0,WeatherDisplay:10.37,2013-02-04 03:58:00,
2013-02-03 22:03:00,49.3,30.4,29.91,South,169,12.7,12.7,48,0.00,CLR,,0.00,0.0,WeatherDisplay:10.37,2013-02-04 04:03:00,
2013-02-03 22:08:00,49.2,30.3,29.91,SSE,151,12.7,12.7,48,0.00,CLR,,0.00,0.0,WeatherDisplay:10.37,2013-02-04 04:08:00,
2013-02-03 22:13:00,49.2,30.8,29.90,South,170,11.5,11.5,49,0.00,CLR,,0.00,0.0,WeatherDisplay:10.37,2013-02-04 04:13:00,
2013-02-03 22:18:00,49.1,30.7,29.90,SSE,161,13.8,13.8,49,0.00,CLR,,0.00,0.0,WeatherDisplay:10.37,2013-02-04 04:18:00,
2013-02-03 22:23:00,49.1,30.7,29.90,SSE,165,11.5,11.5,49,0.00,CLR,,0.00,0.0,WeatherDisplay:10.37,2013-02-04 04:23:00,
2013-02-03 22:28:00,49.1,30.7,29.90,SSE,152,6.9,6.9,49,0.00,CLR,,0.00,0.0,WeatherDisplay:10.37,2013-02-04 04:28:00,
2013-02-03 22:33:00,49.1,30.7,29.90,SSW,212,6.0,6.0,49,0.00,CLR,,0.00,0.0,WeatherDisplay:10.37,2013-02-04 04:33:00,
2013-02-03 22:38:00,49.2,30.8,29.90,South,180,12.7,12.7,49,0.00,CLR,,0.00,0.0,WeatherDisplay:10.37,2013-02-04 04:38:00,
2013-02-03 22:43:00,49.2,30.8,29.89,SE,138,9.2,9.2,49,0.00,CLR,,0.00,0.0,WeatherDisplay:10.37,2013-02-04 04:43:00,
2013-02-03 22:48:00,49.3,30.9,29.89,South,186,12.0,12.0,49,0.00,CLR,,0.00,0.0,WeatherDisplay:10.37,2013-02-04 04:48:00,
2013-02-03 22:53:00,49.5,31.1,29.89,SSE,150,15.0,15.0,49,0.00,CLR,,0.00,0.0,WeatherDisplay:10.37,2013-02-04 04:53:00,
2013-02-03 22:58:00,49.6,31.2,29.89,South,185,13.8,13.8,49,0.00,CLR,,0.00,0.0,WeatherDisplay:10.37,2013-02-04 04:58:00,
2013-02-03 23:00:00,49.6,31.2,29.89,SSE,163,6.9,6.9,49,0.00,CLR,,0.00,0.0,WeatherDisplay:10.37,2013-02-04 05:00:00,
2013-02-03 23:01:00,49.6,31.2,29.89,SSW,202,11.5,11.5,49,0.00,CLR,,0.00,0.0,WeatherDisplay:10.37,2013-02-04 05:01:00,
2013-02-03 23:02:00,49.7,31.3,29.89,SSW,195,12.0,12.0,49,0.00,CLR,,0.00,0.0,WeatherDisplay:10.37,2013-02-04 05:02:00,
2013-02-03 23:07:00,49.7,31.3,29.88,SSE,155,11.5,11.5,49,0.00,CLR,,0.00,0.0,WeatherDisplay:10.37,2013-02-04 05:07:00,
2013-02-03 23:12:00,49.8,31.4,29.88,SE,128,12.7,12.7,49,0.00,CLR,,0.00,0.0,WeatherDisplay:10.37,2013-02-04 05:12:00,
2013-02-03 23:17:00,49.9,31.5,29.88,SSE,164,9.2,9.2,49,0.00,CLR,,0.00,0.0,WeatherDisplay:10.37,2013-02-04 05:17:00,
2013-02-03 23:22:00,49.9,31.5,29.88,SSE,161,11.5,11.5,49,0.00,CLR,,0.00,0.0,WeatherDisplay:10.37,2013-02-04 05:22:00,
2013-02-03 23:27:00,50.0,31.6,29.87,South,190,11.5,11.5,49,0.00,CLR,,0.00,0.0,WeatherDisplay:10.37,2013-02-04 05:27:00,
2013-02-03 23:32:00,50.0,31.6,29.87,SSE,150,9.2,9.2,49,0.00,CLR,,0.00,0.0,WeatherDisplay:10.37,2013-02-04 05:32:00,
2013-02-03 23:37:00,49.9,31.5,29.88,SSE,165,9.2,9.2,49,0.00,CLR,,0.00,0.0,WeatherDisplay:10.37,2013-02-04 05:37:00,
2013-02-03 23:42:00,49.9,31.5,29.88,South,178,12.0,12.0,49,0.00,CLR,,0.00,0.0,WeatherDisplay:10.37,2013-02-04 05:42:00,
2013-02-03 23:47:00,49.8,31.4,29.88,South,175,9.2,9.2,49,0.00,CLR,,0.00,0.0,WeatherDisplay:10.37,2013-02-04 05:47:00,
2013-02-03 23:52:00,49.7,31.3,29.88,SSE,147,9.2,9.2,49,0.00,CLR,,0.00,0.0,WeatherDisplay:10.37,2013-02-04 05:52:00,
2013-02-03 23:57:00,49.6,31.7,29.87,South,190,9.2,9.2,50,0.00,CLR,,0.00,0.0,WeatherDisplay:10.37,2013-02-04 05:57:00,